Columbus, OH

3:13 PM EDT on July 25, 2017 (GMT -0400)
Port Columbus International

Weather History for KCMH - September, 2012

Change the Weather History Date:

Monday, September 24, 2012

  Actual Average Record
Temperature  
Mean Temperature 54 °F 63 °F  
Max Temperature 68 °F 74 °F 92 °F (1961)
Min Temperature 39 °F 53 °F 35 °F (1950)
Degree Days  
Heating Degree Days 11 4  
Month to date heating degree days 58 40  
Since 1 July heating degree days 58 40  
Cooling Degree Days 0 2  
Month to date cooling degree days 115 110  
Year to date cooling degree days 1418 999  
Growing Degree Days 4 (Base 50)    
Moisture  
Dew Point 36 °F    
Average Humidity 60    
Maximum Humidity 93    
Minimum Humidity 26    
Precipitation  
Precipitation 0.00 in 0.09 in 1.14 in (1972)
Month to date precipitation 3.10 2.31  
Year to date precipitation 25.98 30.00  
Snow  
Snow 0.00 in 0.00 in - ()
Month to date snowfall 0.0 0.0  
Since 1 July snowfall 0.0 0.0  
Since 1 September snowfall 0.0 0.0  
Snow Depth 0.00 in    
Sea Level Pressure  
Sea Level Pressure 30.19 in    
Wind  
Wind Speed 5 mph (SSW)    
Max Wind Speed 18 mph    
Max Gust Speed 29 mph    
Visibility 10 miles    
Events      
T = Trace of Precipitation, MM = Missing Value Source: NWS Daily Summary

Daily Weather History Graph

Daily Weather History Graph

Search for Another Location

Airport or City:

Trip Planner

Search our weather history database for the weather conditions in past years. The results will help you decide how hot, cold, wet, or windy it might be!

Date:

Astronomy

Sep. 24, 2012 Rise Set
Actual Time 7:21 AM EDT 7:24 PM EDT
Civil Twilight 6:54 AM EDT 7:51 PM EDT
Nautical Twilight 6:22 AM EDT 8:23 PM EDT
Astronomical Twilight 5:50 AM EDT 8:54 PM EDT
Moon 4:09 PM EDT (9/24) 1:36 AM EDT (9/24)
Length of Visible Light 12h 57m
Length of Day
12h 03m
Waxing Gibbous, 70% of the Moon is Illuminated
Sep 24
Waxing Gibbous
Sep 29
Full
Oct 8
Last Quarter
Oct 15
New
Oct 21
First Quarter

Hourly Weather History & Observations

Time (EDT) Temp. Windchill Dew Point Humidity Pressure Visibility Wind Dir Wind Speed Gust Speed Precip Events Conditions
12:51 AM 46.9 °F - 39.0 °F 74% 30.24 in 10.0 mi Calm Calm - N/A   Clear
1:51 AM 46.0 °F - 39.9 °F 79% 30.24 in 10.0 mi Calm Calm - N/A   Clear
2:51 AM 44.1 °F - 39.9 °F 85% 30.24 in 10.0 mi Calm Calm - N/A   Clear
3:51 AM 41.0 °F - 39.0 °F 93% 30.24 in 10.0 mi Calm Calm - N/A   Clear
4:51 AM 41.0 °F - 37.9 °F 89% 30.25 in 10.0 mi Calm Calm - N/A   Clear
5:51 AM 39.9 °F - 37.9 °F 93% 30.26 in 10.0 mi Calm Calm - N/A   Clear
6:51 AM 39.9 °F - 37.0 °F 89% 30.27 in 10.0 mi Calm Calm - N/A   Clear
7:51 AM 39.9 °F - 37.9 °F 93% 30.28 in 10.0 mi Calm Calm - N/A   Clear
8:51 AM 43.0 °F 40.3 °F 39.0 °F 86% 30.29 in 10.0 mi South 4.6 mph - N/A   Clear
9:51 AM 48.9 °F - 39.9 °F 71% 30.28 in 10.0 mi South 3.5 mph - N/A   Partly Cloudy
10:51 AM 53.1 °F - 37.9 °F 57% 30.28 in 10.0 mi SW 4.6 mph - N/A   Partly Cloudy
11:51 AM 57.0 °F - 35.1 °F 44% 30.27 in 10.0 mi South 4.6 mph - N/A   Scattered Clouds
12:51 PM 59.0 °F - 34.0 °F 39% 30.24 in 10.0 mi Calm Calm - N/A   Scattered Clouds
1:51 PM 63.0 °F - 35.1 °F 35% 30.20 in 10.0 mi Variable 5.8 mph 17.3 mph N/A   Scattered Clouds
2:51 PM 64.9 °F - 33.1 °F 31% 30.17 in 10.0 mi South 9.2 mph 18.4 mph N/A   Scattered Clouds
3:51 PM 66.9 °F - 30.9 °F 26% 30.13 in 10.0 mi SSW 15.0 mph 28.8 mph N/A   Scattered Clouds
4:51 PM 66.9 °F - 30.9 °F 26% 30.10 in 10.0 mi WSW 13.8 mph 20.7 mph N/A   Partly Cloudy
5:51 PM 66.9 °F - 30.0 °F 25% 30.08 in 10.0 mi SSW 11.5 mph - N/A   Partly Cloudy
6:51 PM 64.9 °F - 30.9 °F 28% 30.06 in 10.0 mi SW 17.3 mph - N/A   Partly Cloudy
7:51 PM 62.1 °F - 33.1 °F 34% 30.07 in 10.0 mi SSW 9.2 mph - N/A   Partly Cloudy
8:51 PM 59.0 °F - 35.1 °F 41% 30.08 in 10.0 mi SSW 5.8 mph - N/A   Clear
9:51 PM 57.0 °F - 36.0 °F 45% 30.08 in 10.0 mi SSW 5.8 mph - N/A   Clear
10:51 PM 54.0 °F - 36.0 °F 51% 30.09 in 10.0 mi South 4.6 mph - N/A   Clear
11:51 PM 53.1 °F - 37.0 °F 55% 30.08 in 10.0 mi South 4.6 mph - N/A   Clear